Regional Weather Roundup
Issued by NWS Boston, MA

Home | Current Version | Previous Version | Text Only | Print | Product List | Glossary On
Versions: 1 2 3 4 5 6 7 8 9 10 11 12 13 14 15 16 17 18 19 20 21 22 23 24 25 26 27 28 29 30 31 32 33 34 35 36 37 38 39 40 41 42 43 44 45 46 47
000
ASUS41 KBOX 271710
RWRBOX

REGIONAL WEATHER ROUNDUP
NATIONAL WEATHER SERVICE TAUNTON MA
100 PM EDT WED AUG 27 2014

NOTE:  "FAIR" INDICATES FEW OR NO CLOUDS BELOW 12,000 FEET WITH NO
SIGNIFICANT WEATHER AND/OR OBSTRUCTIONS TO VISIBILITY.  THE FOLLOWING
OBSERVATION LOCATIONS DO NOT REPORT PRESENT WEATHER...PROVINCETOWN...
SMITHFIELD...BLOCK ISLAND...KEENE...AND OXFORD.

MAZALL-271800-
EASTERN MASSACHUSETTS

CITY           SKY/WX    TMP DP  RH WIND       PRES   REMARKS
BOSTON         MOSUNNY   89  64  43 SW17      29.90F HX  90
BEVERLY        MOSUNNY   87  66  49 W14G21    29.89F
LAWRENCE       SUNNY     86  68  54 SW12G22   29.91F
BEDFORD        SUNNY     86  68  54 S14       29.90F
BLUE HILL        N/A     87  63  44 SW15      29.94F
NORWOOD        SUNNY     87  63  44 SW12      29.92F
MARSHFIELD     SUNNY     86  63  45 SW13G23   29.93F
PLYMOUTH       SUNNY     84  62  47 SW16G25   29.95F
TAUNTON        SUNNY     85  65  51 SW8G18    29.94F
NEW BEDFORD    SUNNY     83  65  54 SW14      29.95F
$$

MAZALL-271800-
CAPE COD AND THE ISLANDS

CITY           SKY/WX    TMP DP  RH WIND       PRES   REMARKS
FALMOUTH       SUNNY     81  63  54 SW18G25   29.96F
HYANNIS        SUNNY     80  60  50 SW18G24   29.95F
CHATHAM        SUNNY     78  63  59 SW13G23   29.97F
PROVINCETOWN   SUNNY     79  64  61 SW14G23   29.94F
NANTUCKET      SUNNY     74  67  78 SW13      29.99F
MARTHAS VNYRD  SUNNY     78  57  48 SW16      29.98F
$$

MAZALL-271800-
CENTRAL AND WESTERN MASSACHUSETTS

CITY           SKY/WX    TMP DP  RH WIND       PRES   REMARKS
WORCESTER      SUNNY     81  66  60 W15       29.98F
FITCHBURG      SUNNY     87  67  51 SW8       29.93F HX  90
ORANGE         MOSUNNY   85  66  53 SW12      29.94F
SPRINGFIELD    MOSUNNY   84  69  61 VRB5      29.94F
WESTFIELD      PTSUNNY   85  67  54 W7        29.94F
NORTH ADAMS    CLOUDY    80  67  64 W7        29.96F
PITTSFIELD     MOSUNNY   79  68  69 W6        29.98F
$$

RIZALL-271800-
RHODE ISLAND

CITY           SKY/WX    TMP DP  RH WIND       PRES   REMARKS
PROVIDENCE     SUNNY     86  64  47 SW14      29.95F
NEWPORT        SUNNY     78  66  66 S12G18    29.97F
BLOCK ISLAND   SUNNY     77  64  65 SW20      30.00F
SMITHFIELD     SUNNY     82  64  54 S7        29.96F
WESTERLY       SUNNY     79  67  66 S10       29.98F
$$

CTZALL-271800-
CONNECTICUT

CITY           SKY/WX    TMP DP  RH WIND       PRES   REMARKS
BRADLEY INTL   MOSUNNY   87  66  49 SW8       29.93F
HARTFORD       SUNNY     86  64  47 SW7       29.93F
BRIDGEPORT     SUNNY     84  66  54 SW10      29.97F
DANBURY        SUNNY     84  67  56 VRB5      29.98F
GROTON         SUNNY     77  68  73 S8        29.97F
NEW HAVEN      SUNNY     82  67  60 S10       29.97F
CHESTER        FAIR      81  64  57 SW10      29.99F
MERIDEN        SUNNY     86  66  51 VRB6      29.95F
WILLIMANTIC    SUNNY     84  66  54 SW8       29.96F
OXFORD         SUNNY     82  66  57 SW8       30.01F
$$

MEZ002-015-021-024-NHZ003-005-008-011-012-014-VTZ005-008-271800-
NORTHERN NEW ENGLAND

CITY           SKY/WX    TMP DP  RH WIND       PRES   REMARKS
PORTLAND ME    MOSUNNY   85  67  54 SW6       29.85F
BANGOR ME      MOSUNNY   84  66  54 SW6       29.85F
CONCORD NH     SUNNY     84  66  54 SW8       29.90F
MANCHESTER NH  MOSUNNY   86  65  49 W9        29.89F
NASHUA NH      MOSUNNY   88  67  49 SW7       29.91F HX  91
PORTSMOUTH NH  MOSUNNY   86  69  56 SW10      29.87F HX  90
JAFFREY NH     MOSUNNY   82  65  56 S7        29.97F
KEENE NH       MOSUNNY   79  63  57 W9        29.94F
BURLINGTON VT  MOSUNNY   81  64  56 NW7       29.91F
MT. WASHINGTON FOG       52  52 100 W28         N/A  VSB 1/16
$$

NYZ052-076-271800-
EASTERN NEW YORK

CITY           SKY/WX    TMP DP  RH WIND       PRES   REMARKS
ALBANY         CLOUDY    81  67  62 S5        29.95F
NEW YORK CITY  SUNNY     87  59  38 SW8       29.96F
$$

ANZALL-271800-
MARINE OBSERVATIONS

STATION/POSITION TIME  TEMP    WIND        PRES    VSBY  WAVE
                       AIR SEA DIR/SP/G                  HT/PER
                 (UTC) (F)     (DEG/KT/KT) (MB)    (MI)  (FT/S)
BOSTON BUOY      1650   74 68  210/ 10/ 10 1012.8F         2/ 8
BUZZARDS BAY     1600          220/ 14/ 14 1016.5F
NANTUCKET SOUND  1650   70 71  220/ 14/ 16 1014.8F         2/ 3
MASS BAY-STELLWA 1604   72 69  200/ 10/ 12   N/A    1 7/8  2/ 8
ISLE OF SHOALS   1700   76     180/ 12/ 12 1011.5F
S OF BLOCK IS    1608      69                N/A           4/10
$$

......................KEY.........................
  SKY/WX - SKY CONDITION/PRESENT WEATHER
  TMP    - TEMPERATURE IN FAHRENHEIT
  DWPT   - DEWPOINT IN FAHRENHEIT
  RH     - RELATIVE HUMIDITY IN PERCENT
  WIND   - DIRECTION AND SPEED IN MPH
  PRES   - MEAN SEA LEVEL PRESSURE IN INCHES OF HG
  WCI    - WIND CHILL INDEX
  VSB    - VISIBILITY IN MILES
  HX     - HEAT INDEX
  TC     - TEMPERATURE IN CELSIUS
  VRB    - VARIABLE WIND DIRECTION
  N/A    - NOT AVAILABLE


USA.gov is the U.S. government's official web portal to all federal, state and local government web resources and services.